Location: Lane
(33.5226°N, 79.8788°W)
Time: 04:06:12
(UTC+00:00)

Explorer 7 - Pass Details

Date: 06 October 2022
Orbit: 481 x 665 km, 50.3° (Epoch: 30 November)

Event Time Altitude Azimuth Distance (km) Brightness Sun altitude
Rises 16:24:33 0° 289° (WNW) 3,000 10.3 49.9°
Reaches altitude 10° 16:28:14 10° 318° (NW) 2,085 9.5 50.1°
Maximum altitude 16:30:27 13° 345° (NNW) 1,887 9.3 50.2°
Drops below altitude 10° 16:32:38 10° 12° (NNE) 2,069 9.5 50.3°
Sets 16:36:16 0° 41° (NE) 2,954 10.3 50.5°
